Weather in Goroka

Papua New Guinea     6°06′13″S   145°23′35″E
В апреле 2022 года жителям России запретили посещать сайт meteo.paraplan.net по решению Генеральной прокуратуры. Аудитория сайта уменьшилась в 10 раз. Владельцы сайта не видят смысла в поддержке погодного сервера в таких условиях. Сайт будет закрыт в октябре.
temp.,
°C
wind,
m/s
gust,
m/s
humid.,
%
clouds,
%
prec.,
mm/h
press.,
hPa
HPBL,
m
29 september, thu
thu2901:00+15ene019785 1.6 101440
04:00+14ssw019723 2.3 101525
07:00+15ene019530 0.1 101796
10:00+21nne326753 0.3 10151067
13:00+22nne335994 0.5 10131448
16:00+21n336481 0.8 10121190
19:00+15nw119726 0.3 101532
22:00+14ssw0194100 0.3 101720
30 september, fri
fri3001:00+13ssw119399 0.0 101619
04:00+13ssw119299 0.0 101521
07:00+14ssw1188100 0.0 101745
10:00+22ne2154100 0.0 10151020
13:00+24nne334988 0.0 10111836
16:00+22nne325862 0.3 10111211
19:00+15wnw019619 0.4 101421
22:00+15ese019747 0.7 101619
1 october, sat
sat101:00+15e019641 0.0 101519
04:00+14s119118 0.0 101414
07:00+15ssw11885 0.0 101554
10:00+22ne22547 0.0 10131175
13:00+23nne336049 0.3 10101386
16:00+20nne227425 0.9 1009790
19:00+16n019831 1.0 101226
22:00+15e019755 1.2 101534
2 october, sun
sun201:00+14wsw019584 0.1 101340
04:00+13ssw119136 0.1 101321
07:00+13ssw11835 0.0 101539
10:00+22ne21465 0.0 10131094
13:00+24nne334848 0.1 10091757
16:00+21nne3263100 0.3 10091051
19:00+15nnw019844 0.9 101266
22:00+14sse1197100 1.6 101416
3 october, mon
mon301:00+14ssw1196100 0.0 101324
04:00+13ssw2295100 0.0 101339
07:00+13ssw228972 0.0 101559
10:00+23ne215012 0.0 10121166
13:00+22nne336135 0.4 10091142
16:00+21nne236670 1.4 1009972
19:00+15s019687 1.3 101224
22:00+14sse119548 1.4 101417